• In Moldova, Republic
  • List of Countries
  • For 7 days
  • Water Temperature
  • Satellite Maps
  • Weather Map
  • Weather Widgets
  • user-avatar
    Login

    Hourly Weather Durres

    Today, 20 February, Monday

    Time Temperature Precipitation Wind Pressure Humidity
    00:00 +7°C° 0 mm 2 mps 765 mmHg 90%
    01:00 +6°C° 0 mm 2 mps 765 mmHg 89%
    02:00 +6°C° 0 mm 2 mps 765 mmHg 89%
    03:00 +6°C° 0 mm 2 mps 765 mmHg 89%
    04:00 +5°C° 0 mm 2 mps 765 mmHg 89%
    05:00 +5°C° 0 mm 2 mps 765 mmHg 89%
    06:00 +5°C° 0 mm 2 mps 765 mmHg 88%
    07:00 +5°C° 0 mm 2 mps 765 mmHg 88%
    08:00 +7°C° 0 mm 2 mps 765 mmHg 79%
    09:00 +9°C° 0 mm 2 mps 765 mmHg 69%
    10:00 +12°C° 0 mm 2 mps 765 mmHg 60%
    11:00 +12°C° 0 mm 2 mps 765 mmHg 58%
    12:00 +12°C° 0 mm 2 mps 765 mmHg 56%
    13:00 +13°C° 0 mm 1 mps 765 mmHg 54%
    14:00 +12°C° 0 mm 2 mps 765 mmHg 56%
    15:00 +12°C° 0 mm 2 mps 764 mmHg 59%
    16:00 +12°C° 0 mm 2 mps 764 mmHg 62%
    17:00 +9°C° 0 mm 2 mps 764 mmHg 68%
    18:00 +7°C° 0 mm 2 mps 765 mmHg 74%
    19:00 +6°C° 0 mm 2 mps 765 mmHg 81%
    20:00 +6°C° 0 mm 2 mps 765 mmHg 81%
    21:00 +5°C° 0 mm 2 mps 765 mmHg 81%
    22:00 +5°C° 0 mm 2 mps 765 mmHg 81%
    23:00 +5°C° 0 mm 2 mps 765 mmHg 81%

    Tomorrow, 21 February, Tuesday

    Time Temperature Precipitation Wind Pressure Humidity
    00:00 +5°C° 0 mm 2 mps 765 mmHg 81%
    01:00 +4°C° 0 mm 2 mps 765 mmHg 81%
    02:00 +4°C° 0 mm 2 mps 765 mmHg 81%
    03:00 +4°C° 0 mm 2 mps 764 mmHg 81%
    04:00 +3°C° 0 mm 3 mps 764 mmHg 80%
    05:00 +4°C° 0 mm 2 mps 764 mmHg 80%
    06:00 +4°C° 0 mm 2 mps 764 mmHg 80%
    07:00 +4°C° 0 mm 2 mps 764 mmHg 79%
    08:00 +6°C° 0 mm 2 mps 764 mmHg 70%
    09:00 +8°C° 0 mm 2 mps 764 mmHg 60%
    10:00 +12°C° 0 mm 2 mps 764 mmHg 51%
    11:00 +11°C° 0 mm 3 mps 764 mmHg 50%
    12:00 +12°C° 0 mm 3 mps 763 mmHg 49%
    13:00 +12°C° 0 mm 4 mps 763 mmHg 48%
    14:00 +12°C° 0 mm 4 mps 763 mmHg 52%
    15:00 +11°C° 0 mm 4 mps 763 mmHg 57%
    16:00 +11°C° 0 mm 4 mps 763 mmHg 61%
    17:00 +8°C° 0 mm 4 mps 763 mmHg 68%
    18:00 +7°C° 0 mm 3 mps 763 mmHg 75%
    19:00 +5°C° 0 mm 3 mps 764 mmHg 82%
    20:00 +5°C° 0 mm 3 mps 764 mmHg 80%
    21:00 +5°C° 0 mm 3 mps 764 mmHg 79%
    22:00 +5°C° 0 mm 3 mps 764 mmHg 77%
    23:00 +5°C° 0 mm 2 mps 764 mmHg 76%

    Day after tomorrow, 22 February, Wednesday

    Time Temperature Precipitation Wind Pressure Humidity
    00:00 +5°C° 0 mm 2 mps 764 mmHg 74%
    01:00 +5°C° 0 mm 2 mps 764 mmHg 73%
    02:00 +5°C° 0 mm 2 mps 764 mmHg 72%
    03:00 +5°C° 0 mm 2 mps 764 mmHg 72%
    04:00 +5°C° 0 mm 2 mps 763 mmHg 71%
    05:00 +5°C° 0 mm 2 mps 764 mmHg 70%
    06:00 +5°C° 0 mm 2 mps 764 mmHg 70%
    07:00 +5°C° 0 mm 2 mps 764 mmHg 69%
    08:00 +9°C° 0 mm 1 mps 764 mmHg 63%
    09:00 +11°C° 0 mm 1 mps 764 mmHg 58%
    10:00 +14°C° 0 mm 1 mps 764 mmHg 52%
    11:00 +15°C° 0 mm 1 mps 764 mmHg 53%
    12:00 +15°C° 0 mm 1 mps 764 mmHg 55%
    13:00 +16°C° 0 mm 1 mps 763 mmHg 56%
    14:00 +15°C° 0 mm 1 mps 763 mmHg 60%
    15:00 +15°C° 0 mm 1 mps 763 mmHg 65%
    16:00 +14°C° 0 mm 1 mps 763 mmHg 69%
    17:00 +12°C° 0 mm 1 mps 763 mmHg 76%
    18:00 +11°C° 0 mm 1 mps 763 mmHg 83%
    19:00 +9°C° 0 mm 1 mps 763 mmHg 90%
    20:00 +7°C° 0 mm 2 mps 764 mmHg 90%
    21:00 +7°C° 0 mm 2 mps 764 mmHg 90%
    22:00 +7°C° 0 mm 3 mps 764 mmHg 90%
    23:00 +7°C° 0 mm 3 mps 764 mmHg 90%

    23 February, Thursday

    Time Temperature Precipitation Wind Pressure Humidity
    00:00 +7°C° 0 mm 3 mps 764 mmHg 90%
    01:00 +7°C° 0 mm 3 mps 764 mmHg 90%
    02:00 +5°C° 0 mm 3 mps 763 mmHg 89%
    03:00 +5°C° 0 mm 4 mps 763 mmHg 89%
    04:00 +5°C° 0 mm 4 mps 763 mmHg 89%
    05:00 +5°C° 0 mm 4 mps 763 mmHg 88%
    06:00 +5°C° 0 mm 4 mps 763 mmHg 87%
    07:00 +5°C° 0 mm 4 mps 763 mmHg 86%
    08:00 +8°C° 0 mm 4 mps 763 mmHg 77%
    09:00 +11°C° 0 mm 4 mps 763 mmHg 67%
    10:00 +14°C° 0 mm 4 mps 764 mmHg 58%
    11:00 +14°C° 0 mm 4 mps 763 mmHg 56%
    12:00 +15°C° 0 mm 4 mps 763 mmHg 55%
    13:00 +17°C° 0 mm 4 mps 762 mmHg 53%
    14:00 +15°C° 0 mm 5 mps 762 mmHg 57%
    15:00 +15°C° 0 mm 5 mps 762 mmHg 62%
    16:00 +14°C° 0 mm 5 mps 762 mmHg 66%
    17:00 +13°C° 0 mm 6 mps 762 mmHg 73%
    18:00 +10°C° 0 mm 6 mps 762 mmHg 81%
    19:00 +9°C° 0 mm 6 mps 762 mmHg 89%
    20:00 +8°C° 0 mm 6 mps 762 mmHg 89%
    21:00 +8°C° 0 mm 6 mps 762 mmHg 90%
    22:00 +8°C° 0 mm 6 mps 762 mmHg 91%
    23:00 +8°C° 0.1 mm 6 mps 762 mmHg 91%

    24 February, Friday

    Time Temperature Precipitation Wind Pressure Humidity
    00:00 +8°C° 0.1 mm 7 mps 762 mmHg 90%
    01:00 +8°C° 0.1 mm 7 mps 762 mmHg 90%
    02:00 +8°C° 0 mm 7 mps 761 mmHg 89%
    03:00 +8°C° 0 mm 7 mps 760 mmHg 89%
    04:00 +7°C° 0 mm 8 mps 760 mmHg 89%
    05:00 +7°C° 0 mm 8 mps 760 mmHg 87%
    06:00 +7°C° 0 mm 8 mps 759 mmHg 86%
    07:00 +7°C° 0 mm 8 mps 759 mmHg 84%
    08:00 +10°C° 0 mm 9 mps 759 mmHg 78%
    09:00 +12°C° 0 mm 10 mps 759 mmHg 71%
    10:00 +14°C° 0 mm 11 mps 759 mmHg 64%
    11:00 +14°C° 0.6 mm 11 mps 758 mmHg 70%
    12:00 +14°C° 0.6 mm 12 mps 757 mmHg 76%
    13:00 +14°C° 0.6 mm 12 mps 756 mmHg 82%
    14:00 +14°C° 0.3 mm 12 mps 755 mmHg 81%
    15:00 +14°C° 0.3 mm 13 mps 754 mmHg 79%
    16:00 +15°C° 0.3 mm 13 mps 753 mmHg 78%
    17:00 +14°C° 0.5 mm 14 mps 753 mmHg 80%
    18:00 +13°C° 0.5 mm 14 mps 752 mmHg 83%
    19:00 +13°C° 0.5 mm 15 mps 751 mmHg 85%
    20:00 +13°C° 0.5 mm 15 mps 751 mmHg 86%
    21:00 +13°C° 0.5 mm 15 mps 751 mmHg 88%
    22:00 +13°C° 0.5 mm 16 mps 751 mmHg 89%
    23:00 +11°C° 0.6 mm 15 mps 750 mmHg 90%

    25 February, Saturday

    Time Temperature Precipitation Wind Pressure Humidity
    00:00 +12°C° 0.6 mm 14 mps 750 mmHg 90%
    01:00 +12°C° 0.6 mm 13 mps 750 mmHg 91%
    02:00 +12°C° 1.6 mm 12 mps 750 mmHg 92%
    03:00 +12°C° 1.6 mm 11 mps 750 mmHg 92%
    04:00 +12°C° 1.6 mm 10 mps 749 mmHg 93%
    05:00 +11°C° 0.9 mm 10 mps 750 mmHg 93%
    06:00 +11°C° 0.9 mm 9 mps 751 mmHg 92%
    07:00 +10°C° 0.9 mm 9 mps 752 mmHg 91%
    08:00 +10°C° 0.6 mm 9 mps 753 mmHg 89%
    09:00 +9°C° 0.6 mm 10 mps 754 mmHg 86%
    10:00 +8°C° 0.6 mm 10 mps 756 mmHg 83%
    11:00 +8°C° 0.4 mm 10 mps 757 mmHg 82%
    12:00 +8°C° 0.4 mm 10 mps 757 mmHg 80%
    13:00 +8°C° 0.4 mm 10 mps 758 mmHg 78%
    14:00 +7°C° 0 mm 10 mps 759 mmHg 76%
    15:00 +7°C° 0 mm 9 mps 760 mmHg 74%
    16:00 +7°C° 0 mm 9 mps 761 mmHg 71%
    17:00 +5°C° 0 mm 9 mps 762 mmHg 74%
    18:00 +3°C° 0 mm 9 mps 763 mmHg 76%
    19:00 +2°C° 0 mm 9 mps 764 mmHg 78%
    20:00 +2°C° 0 mm 9 mps 765 mmHg 78%
    21:00 +1°C° 0 mm 9 mps 766 mmHg 78%
    22:00 +1°C° 0 mm 9 mps 767 mmHg 78%
    23:00 0°C° 0 mm 8 mps 767 mmHg 78%
    Show more